Location: Kuffner-Sternwarte
(48.2130°N, 16.2960°E)
Time: 23:42:56
(UTC+02:00)

COROT - Visible Passes

Search period start: 23 September 2017 00:00
Search period end: 03 October 2017 00:00
Orbit: 600 x 890 km, 90.0° (Epoch: 23 September)

Date Brightness Start Highest point End Pass type
(mag) Time Alt. Az. Time Alt. Az. Time Alt. Az.
23 Sep 8.8 01:03:29 12° NNE 01:03:29 12° NNE 01:03:57 10° NNE visible
23 Sep 8.6 02:43:16 11° NNW 02:43:16 11° NNW 02:43:34 10° NNW visible
24 Sep 8.6 02:00:23 13° N 02:00:23 13° N 02:00:51 10° N visible
25 Sep 8.9 01:17:30 11° N 01:17:30 11° N 01:17:43 10° N visible
